[[{"header":{"parameterUnit":"m.s-1","parameterCategory":1,"la1":30.2992,"la2":30.254,"lo1":-89.0895,"lo2":-89.0443,"dy":0.0025,"dx":0.0025,"nx":19,"ny":19,"refTime":"2026-03-29T21:00:00:Z","depth":0,"parameterNumber":2,"parameterNumberName":"U-component_of_WINDS"},"data":[0,0,0,-6.0033,-6.0037,-6.0217,-6.0217,-6.0454,-6.0456,0,0,0,0,0,0,0,0,0,0,0,-5.9984,-5.9986,-6.0033,-6.0037,-6.0216,-6.0217,-6.0453,-6.0456,0,0,0,0,0,0,0,0,0,0,0,-5.9983,-5.9985,-5.9987,-6.0038,-6.0216,-6.0217,-6.0453,-6.0315,0,0,0,0,0,0,0,0,0,0,-6.014,-6.0098,-5.9985,-5.9987,-6.0039,-6.0216,-6.0217,-6.0308,-6.0324,-6.0376,0,-6.0423,0,-6.0443,-6.0472,-6.0473,0,0,0,-6.0034,-6.0085,-6.013,-5.9988,-6.0041,-6.0216,-6.0135,-6.0317,-6.0334,-6.0396,-6.0426,-6.0435,-6.0447,-6.0474,-6.0475,-6.0786,-6.0787,0,0,-6.0024,-6.0018,-6.0118,-6.0142,-6.0114,-6.0129,-6.014,-6.0327,-6.0359,-6.0427,-6.044,-6.0451,-6.0476,-6.0477,-6.0784,-6.0786,0,0,0,-5.9998,-6.0011,-6.0051,-6.0132,-6.0164,-6.0134,-6.0147,-6.0351,-6.0365,-6.0443,-6.0454,-6.0477,-6.048,-6.0783,-6.0785,-6.0856,0,0,0,-5.9992,-5.9996,-6.0047,-6.0045,-6.0161,-6.026,-6.0167,-6.0352,-6.0373,-6.0453,-6.0477,-6.0482,-6.0781,-6.0784,-6.085,-6.0889,0,0,0,-5.9971,-5.9993,-6.0021,-6.0045,-6.0122,-6.0257,-6.0281,-6.0356,-6.038,-6.0473,-6.0483,-6.078,-6.0783,-6.0845,-6.0881,-6.0967,0,0,0,-5.9946,-6.0082,-6.0022,-6.0178,-6.012,-6.0301,-6.028,-6.0415,-6.0503,-6.0478,-6.0781,-6.0785,-6.0843,-6.0875,-6.0961,-6.1036,-6.1067,0,0,-6.0113,-6.0102,-6.0194,-6.0146,-6.0335,-6.0274,-6.0474,-6.0561,-6.0576,-6.0715,-6.0723,-6.0852,-6.088,-6.0966,-6.1252,-6.1277,0,0,0,-6.0245,-6.0311,-6.0363,-6.0447,-6.0518,-6.0581,-6.0638,-6.0671,-6.079,-6.0646,-6.0909,-6.0926,-6.0976,-6.1012,-6.1033,-6.1075,-6.0802,-6.0802,-6.0801,-6.0469,-6.0482,-6.0636,-6.0671,-6.0753,-6.0813,-6.0881,-6.0935,-6.0923,-6.0986,-6.1025,-6.1197,-6.1239,-6.1255,-6.1299,-6.1069,-6.1069,-6.107,-6.107,-6.0712,-6.0806,-6.0791,-6.0933,-6.0946,-6.1067,-6.1131,-6.1119,-6.1233,-6.1168,-6.1213,-6.1137,-6.1282,-6.1321,-6.1075,-6.1075,-6.1074,-6.1073,-6.1073,-6.0856,-6.0903,-6.0943,-6.1067,-6.1162,-6.1195,-6.1305,-6.1314,-6.1324,-6.1369,-6.1411,-6.141,-6.1406,-6.1389,-6.139,-6.1391,-6.1391,-6.1392,-6.1392,-6.0988,-6.1031,-6.1122,-6.1211,-6.1267,-6.1342,-6.1407,-6.1462,-6.1526,-6.1524,-6.1524,-6.1505,-6.1295,-6.1239,-6.1401,-6.14,-6.1398,-6.1397,-6.1397,-6.1222,-6.1171,-6.1312,-6.1369,-6.1474,-6.1568,-6.1581,-6.1694,-6.1742,-6.1796,-6.177,-6.1614,-6.1602,-6.1585,-6.1539,-6.1768,-6.1768,-6.1769,-6.1769,-6.134,-6.1337,-6.1483,-6.1573,-6.1662,-6.1689,-6.1848,-6.1901,-6.1948,-6.1978,-6.1948,-6.1889,-6.1872,-6.187,-6.1847,-6.1803,-6.2096,-6.2096,-6.2096,-6.1483,-6.1489,-6.1621,-6.1667,-6.1751,-6.1824,-6.1973,-6.2078,-6.212,-6.211,-6.2002,-6.1988,-6.1894,-6.1863,-6.1843,-6.1807,-6.1728,0,0]},{"header":{"parameterUnit":"m.s-1","parameterCategory":1,"la1":30.2992,"la2":30.254,"lo1":-89.0895,"lo2":-89.0443,"dy":0.0025,"dx":0.0025,"nx":19,"ny":19,"refTime":"2026-03-29T21:00:00:Z","depth":0,"parameterNumber":3,"parameterNumberName":"V-component_of_WINDS"},"data":[0,0,0,2.9245,2.9248,2.9366,2.9366,2.9491,2.9492,0,0,0,0,0,0,0,0,0,0,0,2.9196,2.9197,2.9245,2.9248,2.9366,2.9366,2.9491,2.9492,0,0,0,0,0,0,0,0,0,0,0,2.9196,2.9196,2.9197,2.9248,2.9366,2.9366,2.9491,2.941,0,0,0,0,0,0,0,0,0,0,2.93,2.9241,2.9196,2.9197,2.9249,2.9365,2.9366,2.9407,2.9415,2.9427,0,2.9434,0,2.9465,2.9499,2.9499,0,0,0,2.9258,2.9234,2.9279,2.9197,2.925,2.9365,2.9315,2.9412,2.9421,2.9438,2.9437,2.9442,2.9467,2.9499,2.95,2.9536,2.9535,0,0,2.9251,2.9209,2.9272,2.9284,2.9267,2.9311,2.9319,2.9418,2.9413,2.9437,2.9445,2.9469,2.95,2.9501,2.9536,2.9535,0,0,0,2.9226,2.9204,2.9247,2.9279,2.9302,2.9315,2.9323,2.9409,2.9427,2.9447,2.9471,2.9501,2.9502,2.9536,2.9536,2.948,0,0,0,2.9222,2.9189,2.9244,2.9219,2.93,2.9357,2.9311,2.942,2.9432,2.947,2.9501,2.9503,2.9537,2.9536,2.9483,2.9461,0,0,0,2.9193,2.9186,2.9199,2.9217,2.9266,2.9357,2.9381,2.9423,2.9446,2.9499,2.9503,2.9537,2.9536,2.9485,2.9464,2.9458,0,0,0,2.9149,2.9146,2.9197,2.9203,2.9265,2.9322,2.938,2.9425,2.9463,2.9501,2.9537,2.9536,2.9485,2.9466,2.946,2.9445,2.9435,0,0,2.9122,2.9142,2.9148,2.9197,2.9235,2.9307,2.9337,2.9411,2.9453,2.9505,2.9507,2.9482,2.9464,2.9458,2.9394,2.9385,0,0,0,2.9125,2.913,2.9149,2.9185,2.9243,2.929,2.9365,2.9392,2.9439,2.9472,2.9479,2.947,2.9468,2.9463,2.9456,2.9457,2.9532,2.9532,2.9532,2.9025,2.9082,2.9097,2.9167,2.9201,2.9279,2.9311,2.9361,2.9407,2.9407,2.9423,2.9377,2.9369,2.9365,2.9365,2.942,2.942,2.9419,2.9419,2.899,2.9005,2.9068,2.9105,2.9163,2.9195,2.9269,2.93,2.9337,2.937,2.9371,2.9402,2.9354,2.9357,2.9416,2.9416,2.9417,2.9417,2.9417,2.8931,2.8948,2.8983,2.9041,2.9079,2.915,2.9183,2.9235,2.9284,2.9285,2.9307,2.9308,2.9316,2.9292,2.9292,2.9292,2.9292,2.9291,2.9291,2.8855,2.8897,2.8919,2.8981,2.9011,2.9057,2.9135,2.9165,2.9212,2.9247,2.9248,2.9293,2.9339,2.9349,2.9289,2.929,2.929,2.929,2.929,2.8799,2.882,2.8854,2.8884,2.8961,2.8995,2.9062,2.912,2.9152,2.9166,2.9212,2.9238,2.9261,2.9267,2.9275,2.92,2.92,2.92,2.92,2.8749,2.8766,2.8813,2.8858,2.8908,2.8972,2.9007,2.9067,2.9132,2.9156,2.9175,2.9191,2.9195,2.9216,2.9223,2.9232,2.9147,2.9147,2.9147,2.8717,2.8742,2.8763,2.8829,2.8893,2.8946,2.8981,2.9028,2.9107,2.9146,2.9175,2.9178,2.9205,2.9211,2.9249,2.9259,2.9277,0,0]}]]